Location: Hengforden
(52.3167°N, 6.1333°E)
Time: 15:37:45
(UTC+00:00)

Cosmos 468 Rocket - Pass Details

Date: 14 June 2025
Orbit: 741 x 774 km, 74.0° (Epoch: 20 July)

Event Time Altitude Azimuth Distance (km) Brightness Sun altitude
Rises 23:14:42 0° 332° (NNW) 3,218 8.6 -14.2°
Reaches altitude 10° 23:17:06 10° 329° (NNW) 2,284 7.5 -14.3°
Maximum altitude 23:22:11 62° 250° (WSW) 841 4.1 -14.3°
Enters shadow 23:25:24 22° 176° (S) 1,580 5.0 -14.3°
